GW7363 Weather Reports


time (UTC)temp
C
wind
direction
speed
KPH
gust
KPH
rain 1hr
cm
rain 24hr
cm
rain mn
cm
humidity
%
barometer
mb
20260507190639 21 10 4.8 4.8 0.00 0.00 0.00 31 1015.3
20260507190138 21 99 1.6 1.6 0.00 0.00 0.00 33 1015.1
20260507185636 21 38 3.2 3.2 0.00 0.00 0.00 33 1015.2
20260507185132 20 63 1.6 1.6 0.00 0.00 0.00 35 1015.3
20260507184630 20 351 8.0 9.7 0.00 0.00 0.00 34 1015.1
20260507184128 20 359 4.8 6.4 0.00 0.00 0.00 37 1015.2
20260507183624 20 355 6.4 6.4 0.00 0.00 0.00 35 1015.4
20260507183121 20 22 3.2 3.2 0.00 0.00 0.00 34 1015.5
20260507182617 19 346 4.8 4.8 0.00 0.00 0.00 37 1015.3
20260507182113 20 313 3.2 3.2 0.00 0.00 0.00 33 1015.5
20260507181610 20 27 1.6 1.6 0.00 0.00 0.00 36 1015.4
20260507181107 20 333 6.4 6.4 0.00 0.00 0.00 34 1015.4
20260507180603 19 45 1.6 3.2 0.00 0.00 0.00 35 1015.6
20260507180100 19 1 6.4 6.4 0.00 0.00 0.00 36 1015.5
20260507175556 19 16 3.2 4.8 0.00 0.00 0.00 37 1015.3
20260507175053 19 351 1.6 1.6 0.00 0.00 0.00 35 1015.4
20260507174550 18 53 4.8 6.4 0.00 0.00 0.00 36 1015.5
20260507174049 18 314 9.7 12.9 0.00 0.00 0.00 37 1015.6
20260507173545 18 351 4.8 4.8 0.00 0.00 0.00 38 1015.6
20260507173042 18 339 6.4 6.4 0.00 0.00 0.00 37 1015.4
20260507172538 18 346 8.0 9.7 0.00 0.00 0.00 38 1015.6
20260507172036 18 301 12.9 16.1 0.00 0.00 0.00 37 1015.6
20260507171531 18 347 4.8 4.8 0.00 0.00 0.00 38 1015.4
20260507171028 18 317 0.0 0.0 0.00 0.00 0.00 37 1015.0
20260507170524 17 348 3.2 3.2 0.00 0.00 0.00 39 1015.2
20260507170022 17 330 4.8 4.8 0.00 0.00 0.00 39 1015.3
20260507165517 17 352 6.4 9.7 0.00 0.00 0.00 38 1015.4
20260507165014 17 319 8.0 9.7 0.00 0.00 0.00 39 1015.4
20260507164510 17 341 8.0 11.3 0.00 0.00 0.00 38 1015.6
20260507164008 17 335 3.2 4.8 0.00 0.00 0.00 37 1015.4
20260507163504 17 326 9.7 11.3 0.00 0.00 0.00 39 1015.6
20260507163002 17 329 3.2 3.2 0.00 0.00 0.00 40 1015.6
20260507162457 17 333 3.2 4.8 0.00 0.00 0.00 39 1015.4
20260507161954 16 342 6.4 6.4 0.00 0.00 0.00 40 1015.4
20260507161450 16 0 1.6 3.2 0.00 0.00 0.00 42 1015.3
20260507160948 16 352 9.7 11.3 0.00 0.00 0.00 39 1015.6
20260507160443 17 345 4.8 4.8 0.00 0.00 0.00 40 1015.7
20260507155939 16 356 1.6 1.6 0.00 0.00 0.00 41 1015.6
20260507155436 16 359 1.6 1.6 0.00 0.00 0.00 41 1015.6
20260507154933 16 56 0.0 0.0 0.00 0.00 0.00 45 1016.0
20260507154429 15 304 1.6 1.6 0.00 0.00 0.00 44 1015.5
20260507153927 15 328 1.6 1.6 0.00 0.00 0.00 46 1015.8
20260507153423 15 312 3.2 4.8 0.00 0.00 0.00 45 1015.7
20260507152919 14 349 1.6 3.2 0.00 0.00 0.00 47 1015.8
20260507152415 14 352 3.2 3.2 0.00 0.00 0.00 46 1016.1
20260507151912 15 339 1.6 3.2 0.00 0.00 0.00 46 1015.8
20260507151408 14 351 1.6 1.6 0.00 0.00 0.00 46 1015.8
20260507150905 13 340 3.2 3.2 0.00 0.00 0.00 46 1015.7
20260507150402 14 317 4.8 4.8 0.00 0.00 0.00 47 1016.0
20260507145858 14 308 1.6 1.6 0.00 0.00 0.00 46 1015.7
20260507145354 13 352 4.8 6.4 0.00 0.00 0.00 47 1016.0
20260507144851 13 341 1.6 1.6 0.00 0.00 0.00 48 1015.7
20260507144349 13 90 3.2 3.2 0.00 0.00 0.00 49 1016.0
20260507143845 12 136 0.0 1.6 0.00 0.00 0.00 50 1016.0
20260507143343 12 127 0.0 1.6 0.00 0.00 0.00 52 1015.6
20260507142839 12 124 1.6 1.6 0.00 0.00 0.00 52 1015.7
20260507142335 12 124 3.2 3.2 0.00 0.00 0.00 52 1015.8
20260507141832 11 123 0.0 0.0 0.00 0.00 0.00 53 1015.7
20260507141329 11 124 1.6 1.6 0.00 0.00 0.00 54 1015.5
20260507140825 11 119 3.2 3.2 0.00 0.00 0.00 55 1015.4
20260507140322 11 87 1.6 3.2 0.00 0.00 0.00 54 1015.3
20260507135820 11 76 1.6 1.6 0.00 0.00 0.00 54 1015.6
20260507135317 11 72 1.6 1.6 0.00 0.00 0.00 55 1015.5
20260507134814 11 70 1.6 1.6 0.00 0.00 0.00 56 1015.6
20260507134310 10 64 0.0 0.0 0.00 0.00 0.00 55 1015.5
20260507133805 10 64 0.0 0.0 0.00 0.00 0.00 57 1015.5
20260507133302 10 64 0.0 0.0 0.00 0.00 0.00 57 1015.3
20260507132800 10 64 0.0 0.0 0.00 0.00 0.00 58 1015.4
20260507132256 10 64 0.0 0.0 0.00 0.00 0.00 57 1015.3
20260507131753 10 64 0.0 0.0 0.00 0.00 0.00 57 1015.3
20260507131250 10 64 0.0 0.0 0.00 0.00 0.00 55 1015.3
20260507130747 10 64 0.0 0.0 0.00 0.00 0.00 55 1015.3
20260507130245 10 58 0.0 0.0 0.00 0.00 0.00 55 1015.1
20260507125743 10 58 0.0 0.0 0.00 0.00 0.00 54 1014.9
20260507125241 10 30 0.0 0.0 0.00 0.00 0.00 54 1015.1
20260507124737 10 112 0.0 0.0 0.00 0.00 0.00 54 1015.1
20260507124234 10 325 0.0 0.0 0.00 0.00 0.00 54 1015.0
20260507123732 10 324 0.0 0.0 0.00 0.00 0.00 54 1015.1
20260507123230 10 325 0.0 0.0 0.00 0.00 0.00 53 1014.9
20260507122724 10 324 0.0 0.0 0.00 0.00 0.00 53 1015.0
20260507122221 10 324 0.0 0.0 0.00 0.00 0.00 54 1015.0
20260507121716 10 324 0.0 0.0 0.00 0.00 0.00 54 1015.0
20260507121213 10 324 0.0 0.0 0.00 0.00 0.00 54 1015.2
20260507120709 11 324 0.0 0.0 0.00 0.00 0.00 52 1015.1
20260507120206 11 324 0.0 0.0 0.00 0.00 0.00 52 1015.2
20260507115702 11 324 1.6 1.6 0.00 0.00 0.00 51 1015.0
20260507115158 11 324 0.0 0.0 0.00 0.00 0.00 51 1014.9
20260507114654 10 323 0.0 0.0 0.00 0.00 0.00 52 1015.0
20260507114151 10 320 0.0 0.0 0.00 0.00 0.00 53 1014.9
20260507113649 10 320 0.0 0.0 0.00 0.00 0.00 53 1015.2
20260507113145 10 320 0.0 0.0 0.00 0.00 0.00 52 1015.2
20260507112643 10 320 0.0 0.0 0.00 0.00 0.00 52 1015.1
20260507112139 10 320 0.0 0.0 0.00 0.00 0.00 53 1015.2
20260507111637 10 320 0.0 0.0 0.00 0.00 0.00 52 1015.1
20260507111133 11 320 0.0 0.0 0.00 0.00 0.00 52 1015.4
20260507110630 11 320 1.6 1.6 0.00 0.00 0.00 50 1015.2
20260507110126 11 320 0.0 0.0 0.00 0.00 0.00 50 1015.1
20260507105623 11 320 0.0 0.0 0.00 0.00 0.00 49 1015.1
20260507105119 11 320 0.0 0.0 0.00 0.00 0.00 48 1015.0
20260507104617 11 320 0.0 0.0 0.00 0.00 0.00 47 1015.0
20260507104113 12 318 3.2 3.2 0.00 0.00 0.00 47 1015.0
20260507103609 12 323 1.6 1.6 0.00 0.00 0.00 46 1015.3
20260507103106 12 324 0.0 0.0 0.00 0.00 0.00 45 1015.1
20260507102602 12 325 3.2 3.2 0.00 0.00 0.00 45 1015.1
20260507102059 12 326 3.2 1.6 0.00 0.00 0.00 45 1015.2
20260507101554 12 321 0.0 0.0 0.00 0.00 0.00 46 1015.3
20260507101051 12 319 4.8 4.8 0.00 0.00 0.00 45 1015.0
20260507100548 11 334 3.2 4.8 0.00 0.00 0.00 47 1015.4
20260507100046 12 344 0.0 0.0 0.00 0.00 0.00 48 1015.2
20260507095544 12 343 0.0 0.0 0.00 0.00 0.00 46 1015.1
20260507095040 12 343 0.0 0.0 0.00 0.00 0.00 46 1015.3
20260507094536 12 343 1.6 0.0 0.00 0.00 0.00 46 1015.3
20260507094034 12 343 1.6 1.6 0.00 0.00 0.00 46 1015.1
20260507093531 12 343 0.0 0.0 0.00 0.00 0.00 45 1015.1
20260507093030 12 343 1.6 1.6 0.00 0.00 0.00 44 1014.9
20260507092526 12 343 0.0 1.6 0.00 0.00 0.00 44 1015.1
20260507092022 12 343 1.6 1.6 0.00 0.00 0.00 44 1015.3
20260507091519 12 343 0.0 0.0 0.00 0.00 0.00 45 1015.2
20260507091015 12 343 0.0 0.0 0.00 0.00 0.00 46 1015.1
20260507090511 12 343 0.0 0.0 0.00 0.00 0.00 45 1015.0
20260507090008 13 343 0.0 0.0 0.00 0.00 0.00 44 1015.0
20260507085505 13 343 1.6 1.6 0.00 0.00 0.00 42 1015.2
20260507085002 13 345 0.0 0.0 0.00 0.00 0.00 40 1015.3
20260507084459 13 342 3.2 3.2 0.00 0.00 0.00 40 1015.2
20260507083956 14 355 3.2 4.8 0.00 0.00 0.00 40 1015.3
20260507083452 14 4 6.4 6.4 0.00 0.00 0.00 40 1015.2
20260507082948 15 354 3.2 3.2 0.00 0.00 0.00 39 1015.3
20260507082444 15 348 6.4 9.7 0.00 0.00 0.00 37 1015.4
20260507081941 14 329 6.4 11.3 0.00 0.00 0.00 38 1015.1
20260507081437 13 347 4.8 6.4 0.00 0.00 0.00 39 1015.1
20260507080935 13 11 4.8 6.4 0.00 0.00 0.00 40 1015.2
20260507080430 13 353 3.2 4.8 0.00 0.00 0.00 41 1015.2
20260507075926 13 348 1.6 1.6 0.00 0.00 0.00 41 1015.2
20260507075423 13 347 3.2 3.2 0.00 0.00 0.00 40 1015.2
20260507074919 15 346 0.0 0.0 0.00 0.00 0.00 39 1015.0
20260507074416 15 340 1.6 1.6 0.00 0.00 0.00 37 1015.1
20260507073914 15 340 1.6 3.2 0.00 0.00 0.00 37 1015.3
20260507073410 15 341 3.2 3.2 0.00 0.00 0.00 37 1015.4
20260507072907 15 339 3.2 3.2 0.00 0.00 0.00 36 1015.1
20260507072404 15 329 3.2 3.2 0.00 0.00 0.00 36 1015.1
20260507071902 15 329 1.6 1.6 0.00 0.00 0.00 35 1015.0
20260507071359 15 333 3.2 3.2 0.00 0.00 0.00 35 1015.1
20260507070855 15 345 3.2 3.2 0.00 0.00 0.00 35 1015.3
20260507070353 15 340 6.4 6.4 0.00 0.00 0.00 34 1015.1
20260507065849 15 339 1.6 3.2 0.00 0.00 0.00 35 1015.3
20260507065346 15 333 6.4 6.4 0.00 0.00 0.00 36 1015.2
20260507064843 15 352 1.6 1.6 0.00 0.00 0.00 36 1015.4
20260507064341 15 339 1.6 1.6 0.00 0.00 0.00 36 1015.3
20260507063839 16 355 1.6 3.2 0.00 0.00 0.00 35 1015.4
20260507063336 16 355 1.6 3.2 0.00 0.00 0.00 34 1015.1
20260507062832 16 355 1.6 3.2 0.00 0.00 0.00 34 1015.3
20260507062329 16 353 3.2 3.2 0.00 0.00 0.00 33 1015.2
20260507061828 16 9 6.4 6.4 0.00 0.00 0.00 33 1015.4
20260507061325 16 29 3.2 3.2 0.00 0.00 0.00 33 1015.1
20260507060824 16 355 4.8 4.8 0.00 0.00 0.00 33 1015.4
20260507060320 16 353 3.2 4.8 0.00 0.00 0.00 34 1015.3
20260507055817 16 6 3.2 3.2 0.00 0.00 0.00 34 1015.3
20260507055312 16 15 3.2 3.2 0.00 0.00 0.00 34 1015.3
20260507054808 16 359 3.2 3.2 0.00 0.00 0.00 34 1015.5
20260507054305 16 4 1.6 1.6 0.00 0.00 0.00 35 1015.2
20260507053802 16 41 1.6 1.6 0.00 0.00 0.00 34 1015.3
20260507053300 16 21 1.6 1.6 0.00 0.00 0.00 34 1015.3
20260507052759 16 20 1.6 1.6 0.00 0.00 0.00 34 1015.2
20260507052254 16 22 1.6 1.6 0.00 0.00 0.00 34 1015.2
20260507051753 16 22 3.2 1.6 0.00 0.00 0.00 34 1015.4
20260507051249 17 24 0.0 1.6 0.00 0.00 0.00 34 1015.2
20260507050746 17 21 1.6 1.6 0.00 0.00 0.00 33 1015.2
20260507050243 17 355 0.0 1.6 0.00 0.00 0.00 32 1015.2
20260507045740 17 11 4.8 4.8 0.00 0.00 0.00 32 1015.0
20260507045236 17 3 0.0 0.0 0.00 0.00 0.00 33 1015.3
20260507044733 17 2 0.0 0.0 0.00 0.00 0.00 32 1015.4
20260507044229 17 0 3.2 3.2 0.00 0.00 0.00 32 1015.4
20260507043726 18 353 1.6 1.6 0.00 0.00 0.00 31 1015.2
20260507043223 18 356 3.2 4.8 0.00 0.00 0.00 31 1015.2
20260507042719 18 341 1.6 3.2 0.00 0.00 0.00 31 1015.3
20260507042214 18 12 1.6 1.6 0.00 0.00 0.00 31 1015.2
20260507041712 18 8 0.0 0.0 0.00 0.00 0.00 31 1015.0
20260507041208 18 339 1.6 1.6 0.00 0.00 0.00 31 1015.1
20260507040705 18 335 8.0 6.4 0.00 0.00 0.00 31 1015.0
20260507040201 18 351 3.2 3.2 0.00 0.00 0.00 31 1015.1
20260507035657 18 284 1.6 1.6 0.00 0.00 0.00 31 1014.9
20260507035153 19 332 1.6 3.2 0.00 0.00 0.00 30 1014.9
20260507034650 19 327 6.4 6.4 0.00 0.00 0.00 30 1014.6
20260507034148 19 340 11.3 14.5 0.00 0.00 0.00 30 1014.5
20260507033646 19 341 6.4 6.4 0.00 0.00 0.00 30 1014.3
20260507033143 20 341 3.2 3.2 0.00 0.00 0.00 31 1014.4
20260507032640 20 336 9.7 11.3 0.00 0.00 0.00 31 1014.3
20260507032136 20 289 3.2 3.2 0.00 0.00 0.00 31 1014.5
20260507031633 20 347 4.8 9.7 0.00 0.00 0.00 31 1014.3
20260507031130 20 326 6.4 6.4 0.00 0.00 0.00 30 1014.2
20260507030627 20 332 6.4 11.3 0.00 0.00 0.00 30 1014.5
20260507030125 20 318 6.4 6.4 0.00 0.00 0.00 30 1014.1
20260507025621 20 340 4.8 6.4 0.00 0.00 0.00 30 1014.1
20260507025118 21 244 6.4 11.3 0.00 0.00 0.00 30 1014.1
20260507024616 21 310 6.4 6.4 0.00 0.00 0.00 29 1014.0
20260507024113 21 336 4.8 6.4 0.00 0.00 0.00 29 1014.1
20260507023608 21 336 4.8 4.8 0.00 0.00 0.00 28 1014.1
20260507023106 21 324 3.2 4.8 0.00 0.00 0.00 28 1013.9
20260507022603 21 301 6.4 9.7 0.00 0.00 0.00 27 1013.9
20260507022058 21 317 11.3 14.5 0.00 0.00 0.00 27 1013.8
20260507021555 22 291 6.4 6.4 0.00 0.00 0.00 27 1013.7
20260507021051 22 303 8.0 9.7 0.00 0.00 0.00 27 1013.9
20260507020549 22 317 4.8 6.4 0.00 0.00 0.00 27 1013.7
20260507020045 22 324 4.8 9.7 0.00 0.00 0.00 27 1013.8
20260507015544 22 333 4.8 6.4 0.00 0.00 0.00 27 1013.7
20260507015041 22 351 9.7 12.9 0.00 0.00 0.00 27 1013.7
20260507014537 22 314 9.7 11.3 0.00 0.00 0.00 27 1013.6
20260507014033 22 319 8.0 14.5 0.00 0.00 0.00 27 1013.6
20260507013530 22 278 8.0 11.3 0.00 0.00 0.00 27 1013.8
20260507013027 22 313 9.7 11.3 0.00 0.00 0.00 27 1013.7
20260507012524 23 330 6.4 6.4 0.00 0.00 0.00 26 1013.7
20260507012020 23 332 9.7 11.3 0.00 0.00 0.00 25 1013.6
20260507011518 23 345 8.0 9.7 0.00 0.00 0.00 26 1013.7
20260507011014 23 338 6.4 9.7 0.00 0.00 0.00 26 1013.2
20260507010508 23 263 6.4 6.4 0.00 0.00 0.00 28 1013.7
20260507010005 23 332 9.7 11.3 0.00 0.00 0.00 28 1013.7
20260507005503 23 345 3.2 3.2 0.00 0.00 0.00 28 1013.3
20260507004959 24 349 12.9 16.1 0.00 0.00 0.00 27 1013.6
20260507004456 24 2 8.0 9.7 0.00 0.00 0.00 26 1013.7
20260507003954 24 316 8.0 9.7 0.00 0.00 0.00 26 1013.3
20260507003448 24 7 11.3 12.9 0.00 0.00 0.00 25 1013.6
20260507002943 24 314 8.0 12.9 0.00 0.00 0.00 25 1013.5
20260507002440 23 331 6.4 6.4 0.00 0.00 0.00 26 1013.6
20260507001937 23 344 12.9 16.1 0.00 0.00 0.00 27 1013.3
20260507001434 23 297 14.5 16.1 0.00 0.00 0.00 28 1013.3
20260507000932 23 248 12.9 17.7 0.00 0.00 0.00 31 1012.9
20260507000427 23 306 12.9 16.1 0.00 0.00 0.00 32 1013.1
20260506235923 24 314 16.1 20.9 0.00 0.00 0.00 32 1013.1
20260506235420 24 359 8.0 11.3 0.00 0.00 0.00 33 1013.2